Weather History for Zanesville, OH

Change the Weather History Date:

Friday, November 11, 2011

  Actual Average Record
Temperature  
Mean Temperature 38 °F 45 °F  
Max Temperature 44 °F 55 °F 71 °F (1964)
Min Temperature 31 °F 35 °F 14 °F (1957)
Degree Days  
Heating Degree Days 27 20  
Month to date heating degree days 203 202  
Since 1 July heating degree days 681 689  
Cooling Degree Days 0 0  
Month to date cooling degree days 0 0  
Year to date cooling degree days 955 768  
Moisture  
Dew Point 26 °F    
Average Humidity 64    
Maximum Humidity 82    
Minimum Humidity 45    
Precipitation  
Precipitation 0.00 in 0.10 in 1.49 in (1967)
Month to date precipitation 0.13 1.06  
Year to date precipitation 42.71 33.20  
Sea Level Pressure  
Sea Level Pressure 30.02 in    
Wind  
Wind Speed 8 mph (WSW)    
Max Wind Speed 17 mph    
Max Gust Speed 23 mph    
Visibility 10 miles    
Events      
T = Trace of Precipitation, MM = Missing Value Source: NWS Daily Summary

Daily Weather History Graph

Daily Weather History Graph

Search for Another Location

Airport:

Trip Planner

Search our weather history database for the weather conditions in past years. The results will help you decide how hot, cold, wet, or windy it might be!

Date:

Astronomy

Nov. 11, 2011 Rise Set
Actual Time 7:07 AM EST 5:14 PM EST
Civil Twilight 6:38 AM EST 5:43 PM EST
Nautical Twilight 6:06 AM EST 6:16 PM EST
Astronomical Twilight 5:34 AM EST 6:47 PM EST
Moon 5:43 PM EST (11/11) 7:54 AM EST (11/11)
Length of Visible Light 11h 04m
Length of Day
10h 07m
Full, 99% of the Moon is Illuminated
Nov 11
Full
Nov 18
Last Quarter
Nov 25
New
Dec 2
First Quarter
Dec 10
Full

Hourly Weather History & Observations

Time (EST) Temp. Windchill Dew Point Humidity Pressure Visibility Wind Dir Wind Speed Gust Speed Precip Events Conditions
12:53 AM 30.2 °F 24.3 °F 24.8 °F 80% 29.95 in 10.0 mi West 5.8 mph - N/A   Clear
1:14 AM 32.0 °F 24.8 °F 26.6 °F 80% 29.95 in 10.0 mi West 8.1 mph - N/A   Mostly Cloudy
1:53 AM 33.1 °F 24.9 °F 27.0 °F 78% 29.96 in 10.0 mi West 10.4 mph - N/A   Overcast
2:53 AM 34.0 °F 26.0 °F 27.0 °F 75% 29.96 in 10.0 mi West 10.4 mph - N/A   Overcast
3:53 AM 33.8 °F 26.4 °F 28.4 °F 81% 29.94 in 10.0 mi WSW 9.2 mph - N/A   Overcast
4:53 AM 34.0 °F 26.6 °F 28.9 °F 82% 29.97 in 10.0 mi WSW 9.2 mph - N/A   Overcast
5:53 AM 35.1 °F 28.6 °F 28.9 °F 78% 29.98 in 10.0 mi West 8.1 mph - N/A   Overcast
6:53 AM 35.6 °F 27.5 °F 28.4 °F 75% 29.99 in 10.0 mi West 11.5 mph - N/A   Overcast
7:53 AM 35.1 °F 27.4 °F 28.9 °F 78% 30.04 in 10.0 mi West 10.4 mph - N/A   Overcast
8:53 AM 35.1 °F 28.6 °F 28.9 °F 78% 30.06 in 10.0 mi West 8.1 mph - N/A   Overcast
9:53 AM 35.6 °F 28.0 °F 28.4 °F 75% 30.05 in 10.0 mi WSW 10.4 mph - N/A   Overcast
10:53 AM 35.6 °F 29.2 °F 28.4 °F 75% 30.06 in 10.0 mi West 8.1 mph - N/A   Overcast
11:53 AM 39.0 °F 32.8 °F 28.9 °F 67% 30.06 in 10.0 mi West 9.2 mph - N/A   Mostly Cloudy
12:53 PM 44.1 °F 37.7 °F 28.9 °F 55% 30.05 in 10.0 mi West 12.7 mph 19.6 mph N/A   Mostly Cloudy
1:53 PM 42.1 °F 35.7 °F 25.0 °F 51% 30.04 in 10.0 mi WSW 11.5 mph 19.6 mph N/A   Scattered Clouds
2:53 PM 41.0 °F 33.5 °F 23.0 °F 49% 30.04 in 10.0 mi West 13.8 mph 20.7 mph N/A   Scattered Clouds
3:53 PM 42.1 °F 35.7 °F 23.0 °F 47% 30.04 in 10.0 mi WSW 11.5 mph - N/A   Clear
4:53 PM 41.0 °F 36.4 °F 24.1 °F 51% 30.04 in 10.0 mi WSW 6.9 mph - N/A   Overcast
5:53 PM 39.0 °F 36.8 °F 23.0 °F 53% 30.03 in 10.0 mi SSW 3.5 mph - N/A   Partly Cloudy
6:53 PM 37.9 °F 35.5 °F 23.0 °F 55% 30.05 in 10.0 mi South 3.5 mph - N/A   Clear
7:53 PM 35.1 °F 31.0 °F 23.0 °F 61% 30.04 in 10.0 mi South 4.6 mph - N/A   Clear
8:53 PM 35.1 °F 31.0 °F 21.9 °F 59% 30.04 in 10.0 mi South 4.6 mph - N/A   Clear
9:53 PM 33.1 °F 27.7 °F 23.0 °F 66% 30.04 in 10.0 mi South 5.8 mph - N/A   Clear
10:53 PM 32.0 °F 27.5 °F 23.0 °F 69% 30.03 in 10.0 mi South 4.6 mph - N/A   Clear
11:53 PM 34.0 °F 27.2 °F 23.0 °F 64% 30.01 in 10.0 mi South 8.1 mph - N/A   Clear